Flag for United Kingdom Weather past 2 weeks in Brighton, England, United Kingdom

Now
54 °F

Broken clouds.


Feels Like: 48 °F
Forecast: N/A
Wind: 23 mph from Southwest

Location: Shoreham Airport

Current Time: Dec 22, 2014 at 4:25:15 PM

Latest Report: Dec 22, 2014 at 3:50 PM


Visibility: 6 mi

Pressure: 30.12 "Hg

Humidity: 82%

Dew point: 48 °F

Location of BrightonLocation

Historic Weather in Brighton — Graph

°F

Brighton temperature yesterday

Maximum temperature yesterday: 52 °F (at 6:20 PM)
Minimum temperature yesterday: 46 °F (at 8:50 AM)
Average temperature yesterday: 49 °F

Past Weeks' High & Low Weather Summary

 TemperatureHumidityPressure
High55 °F (Dec 17, 11:50 AM)100% (Dec 15, 6:20 PM)30.45 "Hg (Dec 15, 6:20 PM)
Low28 °F (Dec 9, 7:50 AM)61% (Dec 8, 2:20 PM)29.33 "Hg (Dec 12, 7:50 AM)
Average46 °F82%30.00 "Hg
* Reported Dec 7 3:20 PM — Dec 22 3:20 PM, Brighton, Weather by CustomWeather, © 2014

Note: Actual official high and low records may vary slightly from our data, if they occured in-between our weather recording intervals... More about our weather records

Advertising

Brighton weather history for previous 24 hours

 ConditionsComfort  
Time TempWeatherWind HumidityBarometerVisibility
3:20 PM
Dec 22
54 °FPartly sunny.22 mph82%30.12 "Hg5 mi
2:50 PM54 °FPartly sunny.20 mph82%30.12 "Hg5 mi
2:20 PM54 °FPartly sunny.21 mph88%30.12 "Hg5 mi
1:50 PM54 °FPartly sunny.21 mph88%30.12 "Hg5 mi
1:20 PM54 °FPassing clouds.23 mph82%30.12 "Hg6 mi
12:50 PM54 °FPassing clouds.23 mph82%30.12 "Hg6 mi
12:20 PM54 °FPassing clouds.24 mph88%30.12 "Hg6 mi
11:50 AM54 °FPassing clouds.23 mph88%30.15 "Hg6 mi
11:20 AM54 °FPassing clouds.22 mph88%30.15 "Hg6 mi
10:50 AM54 °FScattered clouds.23 mph88%30.15 "Hg6 mi
10:20 AM54 °FScattered clouds.23 mph88%30.15 "Hg5 mi
9:50 AM54 °FScattered clouds.25 mph88%30.15 "Hg5 mi
9:20 AM54 °FScattered clouds.23 mph88%30.12 "Hg5 mi
8:50 AM54 °FPartly sunny.24 mph88%30.12 "Hg4 mi
8:20 AM54 °FFog.24 mph94%30.12 "Hg3 mi
7:50 AM54 °FDrizzle. Fog.26 mph94%30.12 "Hg2 mi
6:50 PM
Dec 21
52 °FPassing clouds.24 mph88%30.27 "Hg6 mi
6:20 PM52 °FPassing clouds.26 mph88%30.27 "HgN/A
5:50 PM50 °FPassing clouds.20 mph94%30.30 "Hg4 mi
5:20 PM50 °FPartly cloudy.17 mph94%30.30 "Hg5 mi
4:50 PM50 °FPartly cloudy.20 mph94%30.30 "Hg5 mi
4:20 PM50 °FPartly cloudy.18 mph88%30.30 "Hg2 mi
Weather by CustomWeather, © 2014

See weather overviewHow to use our weather pages